SCP
-0 0 0 0 0 0 0 0 0 0 0 0 0 0 0 0 0 0 0 0 0 0 0 0 0 -0 0 0 0 0 0 0 0 0 0 0 0 0 0 0 0 0 0 0 0 0 0 0 0 0 0 0 0 0
0 -0 0 0 0 0 0 0 0 0 0 0 0 0 0 0 0 0 0 0 0 0 0 -0 0 0 0 0 0 0 0 0 0 0 0 0 0 0 0 0 0 0 0 0 0 0 0 0 0 0 0 0 0 0
-0 0 0 0 0 0 0 0 0 0 0 0 0 0 0 0 0 0 0 0 0 0 -0 -0 -0 -0 -0 0 0 0 0 0 0 0 0 0 0 0 0 0 0 0 0 0 0 0 0 0 0 0 0 0 0 0
-0 0 -0 -0 0 0 0 0 0 0 0 0 0 0 0 0 0 0 0 0 0 0 -0 -0 0 -0 -0 0 0 0 0 0 0 0 0 0 0 0 0 0 0 0 0 0 0 0 0 0 0 0 0 0 0 0
0 -0 -0 -0 -0 0 0 0 0 0 0 0 0 0 0 0 0 0 0 0 0 0 -0 -0 -0 -0 0 0 0 0 0 0 0 0 0 0 0 0 0 0 0 0 0 0 0 0 0 0 0 0 0 0 0 0
0 0 0 0 0 0 0 0 0 0 0 0 0 0 0 0 0 0 -0 -0 0 0 -0 -0 0 0 0 0 0 0 0 0 0 0 0 0 0 0 0 0 0 0 0 0 0 0 0 0 0 0 0 0 0 0
0 0 0 0 0 0 0 0 0 0 0 0 0 0 0 0 0 0 -0 0 0 0 0 -0 -0 0 0 0 0 0 0 0 0 0 0 0 0 0 0 0 0 0 0 0 0 0 0 0 0 0 0 0 0 0
0 0 0 0 0 -0 -0 0 0 0 0 0 0 -0 -0 0 -0 0 0 -0 0 0 0 -0 0 0 0 0 0 0 0 0 0 0 0 0 0 0 0 0 0 0 0 0 0 0 0 0 0 0 0 0 0 0
0 0 0 0 0 0 -0 -0 -0 0 0 0 0 -0 -0 -0 0 0 0 0 0 0 0 0 0 0 0 0 0 0 0 0 0 0 0 0 0 0 0 0 0 0 0 0 0 0 0 0 0 0 0 0 0 0
0 0 0 0 0 0 0 0 0 -0 0 0 0 -0 -0 -0 0 0 0 0 0 0 0 0 0 0 0 0 0 0 0 0 0 0 0 0 0 0 0 0 0 0 0 0 0 0 0 0 0 0 0 0 0 0
0 0 0 0 0 0 0 0 -0 -0 0 0 0 0 -0 0 0 0 0 0 0 0 0 0 0 0 0 0 0 0 0 0 0 0 0 0 0 0 0 0 0 0 0 0 0 0 0 0 0 0 0 0 0 0
0 0 0 0 0 0 0 0 -0 0 -0 -0 -0 -0 -0 0 0 0 0 0 0 0 0 0 0 0 0 0 0 0 0 0 0 0 0 0 0 0 0 0 0 0 0 0 0 0 0 0 0 0 0 0 0 0
0 0 0 0 0 0 0 0 -0 0 0 -0 -0 -0 0 0 0 0 0 0 0 0 0 0 0 0 0 0 0 0 0 0 0 0 0 0 0 0 0 0 0 0 0 0 0 0 0 0 0 0 0 0 0 0
0 0 0 0 0 0 0 0 0 0 0 0 -0 0 0 0 0 0 0 0 0 0 0 0 0 0 0 0 0 0 0 0 0 0 0 0 0 0 0 0 0 0 0 0 0 0 0 0 0 0 0 0 0 0
0 -0 0 0 0 0 0 0 0 0 0 0 0 0 0 0 0 0 0 0 0 0 0 0 0 0 0 0 0 0 0 0 0 0 0 0 0 0 0 0 0 0 0 0 0 0 0 0 0 0 0 0 0 0
-0 -0 0 0 0 0 0 0 0 0 0 0 0 0 0 0 0 0 0 0 0 0 0 0 0 0 0 0 0 0 0 0 0 0 0 0 0 0 0 0 0 0 0 0 0 0 0 0 0 0 0 0 0 0
0 -0 -0 0 0 0 0 0 0 0 0 0 0 0 0 0 0 0 0 0 0 0 0 0 0 0 0 0 0 0 0 0 0 0 0 0 0 0 0 0 0 0 0 0 0 0 0 0 0 0 0 0 0 0
-0 -0 -0 -0 -0 0 0 0 0 0 0 0 0 0 0 0 0 0 0 0 0 0 0 0 0 0 0 0 0 0 0 0 0 0 0 0 0 0 0 0 0 0 0 0 0 0 0 0 0 0 0 0 0 0
0 0 -0 -0 0 0 0 0 0 0 0 0 0 0 0 0 0 0 0 0 0 0 0 0 0 0 0 0 0 0 0 0 0 0 0 0 0 0 0 0 0 0 0 0 0 0 0 0 0 0 0 0 0 0
0 -0 -0 0 -0 -0 0 0 0 0 0 0 0 0 0 0 0 0 0 0 0 0 0 0 0 0 0 0 0 0 0 0 0 0 0 0 0 0 0 0 0 0 0 0 0 0 0 0 0 0 0 0 0 0
-0 0 -0 0 0 0 -0 0 0 0 0 0 0 0 0 0 0 0 0 0 0 0 0 0 0 0 0 0 0 0 0 0 0 0 0 0 0 0 0 0 0 0 0 0 0 0 0 0 0 0 0 0 0 0
0 0 0 0 0 0 -0 0 0 0 0 0 0 0 0 0 0 0 0 0 0 0 0 0 0 0 0 0 0 0 0 0 0 0 0 0 0 0 0 0 0 0 0 0 0 0 0 0 0 0 0 0 0 0
0 0 0 0 0 0 0 0 0 0 -0 0 0 0 0 0 0 0 0 0 0 0 0 0 0 0 0 0 0 0 0 0 0 0 0 0 0 0 0 0 0 0 0 0 0 0 0 0 0 0 0 0 0 0
0 0 0 0 0 0 0 0 0 0 0 -0 -0 0 0 0 0 0 0 0 0 0 0 0 0 0 0 0 0 0 0 0 0 0 0 0 0 0 0 0 0 0 0 0 0 0 0 0 0 0 0 0 0 0
0 0 0 0 0 0 0 0 -0 -0 0 0 0 -0 -0 -0 0 0 0 0 0 0 0 0 0 0 0 0 0 0 0 0 0 0 0 0 0 0 0 0 0 0 0 0 0 0 0 0 0 0 0 0 0 0
0 0 0 0 0 0 0 0 0 0 0 -0 -0 -0 -0 -0 -0 -0 0 0 0 0 0 0 0 0 0 0 0 0 0 0 0 0 0 0 0 0 0 0 0 0 0 0 0 0 0 0 0 0 0 0 0 0
0 0 0 0 0 0 0 0 0 0 0 0 0 -0 -0 -0 -0 -0 0 0 0 0 0 0 0 0 0 0 0 0 0 0 0 0 0 0 0 0 0 0 0 0 0 0 0 0 0 0 0 0 0 0 0 0
0 0 0 0 0 0 0 0 0 -0 -0 0 0 -0 -0 -0 0 -0 -0 -0 -0 -0 -0 0 0 0 0 0 0 0 0 0 0 0 0 0 0 0 0 0 0 0 0 0 0 0 0 0 0 0 0 0 0 0
0 0 0 0 0 0 0 0 0 0 0 0 -0 -0 -0 -0 -0 -0 -0 0 0 -0 -0 -0 -0 -0 -0 -0 -0 0 0 0 0 0 0 0 0 0 -0 -0 0 0 0 0 0 0 0 0 0 0 0 0 0 0
0 0 0 0 0 0 0 0 0 0 0 0 0 0 0 0 0 0 0 -0 -0 -0 -0 -0 -0 -0 -0 -0 -0 -0 -0 -0 -0 -0 0 0 0 0 0 0 0 0 0 0 0 0 0 0 0 0 0 0 0 0
0 0 0 0 0 0 0 0 0 0 0 0 0 0 0 0 -0 0 0 0 0 0 -0 -0 -0 -0 -0 -0 -0 0 0 -0 0 -0 -0 0 0 0 0 0 0 0 0 0 0 0 0 0 0 0 0 0 0 0
0 0 0 0 0 0 0 0 0 0 0 0 0 0 0 0 0 0 0 0 0 0 0 0 0 0 0 0 0 0 0 0 0 0 0 0 0 0 0 0 0 0 0 0 0 0 0 0 0 0 0 0 0 0
0 0 0 0 0 0 0 0 0 0 0 0 0 0 0 0 0 0 0 0 0 0 0 0 0 0 0 0 0 0 0 0 0 0 0 0 0 0 0 0 0 0 0 0 0 0 0 0 0 0 0 0 0 0
Wind_Speed_500mb
52 24 29 53 48 49 47 40 38 38 38 51 45 45 44 46 43 44 47 46 50 23 39 46 69 58 57 62 31 18 21 5 10 13 9 6 6 10 9 12 37 24 28 20 6 5 28 23 34 38 12 7 28 37
59 29 25 46 53 45 36 31 33 39 34 43 54 45 47 45 43 43 39 45 45 51 23 31 88 82 70 81 79 49 22 16 21 9 9 6 7 8 13 17 18 10 26 25 29 13 8 63 40 57 40 30 25 30
77 54 54 43 34 32 28 26 29 36 38 37 47 46 43 42 41 42 38 46 52 45 41 56 74 79 87 90 78 33 40 54 34 28 9 7 9 7 12 9 28 10 15 14 14 15 15 58 19 64 44 42 39 34
69 67 41 43 31 28 29 25 20 26 37 27 31 31 29 32 37 45 35 43 68 17 10 19 55 90 69 68 91 94 79 66 50 48 7 7 7 7 8 11 14 10 24 15 9 7 16 37 54 70 58 42 38 31
55 66 65 39 50 34 27 20 17 18 22 20 17 17 25 38 45 55 38 41 76 46 5 8 27 58 77 82 89 96 60 68 34 13 4 5 4 10 3 7 5 14 35 24 19 36 38 40 75 66 70 59 39 35
60 52 57 46 49 42 29 23 16 12 11 14 16 17 19 26 33 38 11 30 68 74 14 6 12 38 71 79 75 74 59 66 16 12 3 5 10 5 9 7 5 46 48 55 10 65 52 47 77 73 64 54 54 40
51 46 45 47 41 35 19 9 1 5 9 8 11 14 14 18 16 16 4 12 34 61 13 5 4 11 52 58 41 43 45 37 18 14 5 9 7 3 3 7 13 52 43 52 35 64 33 47 62 73 72 56 46 45
40 44 40 40 39 31 22 15 10 8 7 10 11 17 23 20 7 16 17 16 25 27 14 4 4 8 28 14 9 22 17 22 13 11 9 5 2 2 1 4 23 46 51 53 61 55 72 50 48 69 63 63 58 54
38 38 37 36 38 31 23 19 15 11 7 9 10 16 22 12 13 11 24 5 21 14 3 6 10 8 15 12 15 12 13 5 8 5 4 4 2 3 1 1 31 56 43 54 50 35 43 61 58 64 66 64 66 63
39 37 37 38 39 33 26 23 22 15 13 3 6 7 4 9 34 31 5 2 2 2 6 3 10 5 6 7 4 7 4 7 6 3 15 3 5 9 4 8 16 29 27 65 60 37 48 59 65 68 73 74 70 69
35 40 41 37 36 36 27 22 25 14 7 4 2 6 9 12 7 5 3 4 6 3 14 9 11 3 9 5 7 6 5 6 7 6 7 7 4 6 2 11 15 21 41 50 46 56 59 67 75 77 73 67 64 64
34 36 43 42 43 33 26 23 20 20 12 7 7 4 10 12 11 6 5 6 9 6 15 9 10 11 10 10 7 6 6 2 8 10 7 8 4 14 3 2 9 19 30 37 29 41 48 65 75 75 71 66 65 66
27 33 41 43 43 35 28 22 17 18 18 7 7 8 15 13 18 12 16 6 9 14 19 17 7 7 9 12 7 6 6 3 2 4 6 5 8 14 9 5 6 18 25 32 33 38 48 62 60 59 68 68 73 75
20 30 38 40 41 35 32 25 14 10 7 13 12 14 9 8 7 6 6 7 12 21 38 32 8 5 7 7 5 9 1 4 5 7 5 5 21 21 14 7 10 16 28 36 41 46 52 58 65 69 72 77 79 79
28 29 40 38 37 33 29 26 14 5 13 14 14 10 8 2 1 9 16 19 16 35 32 17 12 4 7 8 5 7 4 6 7 5 5 21 24 18 17 16 18 24 32 44 49 55 62 71 78 83 79 77 73 69
40 29 47 42 35 28 22 13 15 20 14 14 22 6 19 3 8 14 18 16 35 50 24 12 4 6 10 5 7 9 5 7 5 5 18 23 23 21 20 17 21 29 41 54 64 71 76 78 80 80 76 71 71 68
52 63 54 34 23 30 10 13 16 20 15 12 8 16 8 4 6 17 24 34 55 28 8 6 11 7 5 6 8 11 8 6 13 19 17 18 19 18 17 16 23 34 44 54 64 68 72 72 74 73 70 64 61 59
62 64 54 33 21 31 49 25 17 17 15 20 6 14 10 14 19 19 35 46 32 24 18 8 11 16 10 8 7 7 14 16 15 15 16 16 15 14 14 17 24 33 41 50 57 60 62 63 65 64 65 64 61 58
51 53 46 30 38 24 15 20 19 12 13 7 10 23 12 12 28 41 47 37 17 21 9 12 13 9 7 8 7 15 16 13 10 17 16 16 14 13 17 22 28 35 40 46 50 55 57 56 57 58 57 55 52 49
41 39 44 38 28 17 16 19 15 16 6 10 15 15 11 15 34 40 63 47 41 19 19 12 8 9 10 12 15 16 16 15 14 11 13 16 15 15 18 23 29 34 36 40 46 49 50 51 50 46 44 42 38 36
37 34 42 44 48 38 22 17 19 14 8 9 14 12 11 18 32 45 45 41 34 18 7 14 18 19 17 16 16 14 14 13 13 10 9 13 17 18 20 22 25 28 33 35 37 40 38 38 37 35 33 31 27 23
36 39 37 35 26 18 24 35 12 12 11 10 14 15 17 9 20 28 23 42 17 14 16 23 26 23 21 23 21 20 17 15 15 15 15 15 16 17 18 19 19 21 24 27 28 29 28 26 25 23 21 19 18 16
30 30 26 33 18 24 12 26 13 22 10 15 13 11 9 12 26 18 15 16 14 27 31 30 23 21 23 24 25 25 22 19 19 17 17 16 16 16 16 16 16 16 17 18 19 19 18 16 15 13 12 10 10 10
38 23 25 21 34 13 19 22 16 16 14 11 9 9 10 15 27 14 7 7 21 31 32 29 26 22 24 28 28 26 24 22 20 18 16 14 13 13 12 12 11 10 9 9 8 7 7 6 6 6 7 8 10 11
17 34 22 18 25 19 17 14 15 13 8 9 10 9 9 18 6 8 4 12 23 28 30 30 29 28 26 25 27 27 27 26 23 20 18 16 15 13 12 10 7 5 3 1 1 2 3 5 7 8 10 11 12 13
18 31 18 16 13 12 7 11 12 8 6 11 6 16 11 5 10 6 4 21 20 25 27 28 28 26 27 27 26 26 26 26 24 20 19 17 14 13 11 10 8 8 6 5 5 6 8 9 11 12 12 14 15 17
15 11 18 21 12 9 7 6 5 5 10 11 8 11 7 10 6 6 12 17 20 25 26 25 25 25 25 25 25 25 25 25 25 24 21 17 16 14 13 11 10 8 8 7 7 8 10 11 12 14 15 17 20 24
11 25 6 26 13 15 4 6 8 7 6 14 11 11 5 6 6 7 6 12 15 17 19 21 22 24 26 28 28 27 26 25 24 22 20 20 20 18 16 14 13 13 12 13 14 14 15 17 20 23 24 24 23 29
12 32 20 13 11 13 14 7 5 8 16 10 1 5 7 7 10 10 11 13 14 13 14 17 20 23 26 27 29 29 28 25 25 26 27 26 25 24 22 21 20 21 22 23 25 28 29 32 33 36 36 37 34 36
20 36 14 14 7 7 9 18 19 24 18 11 12 13 14 11 10 11 9 6 3 3 7 12 16 20 22 27 29 31 30 28 29 30 30 30 32 34 33 33 33 34 36 38 38 39 40 43 45 47 49 49 48 49
22 21 9 6 3 7 23 27 20 16 12 8 12 12 15 17 9 6 2 5 7 5 4 4 6 16 26 29 32 39 45 44 45 40 38 39 40 41 41 43 45 46 47 48 50 53 55 57 57 57 57 58 57 58
20 20 12 7 5 17 19 27 16 10 9 8 7 12 14 12 10 5 6 11 16 16 15 20 30 40 34 37 38 44 50 56 62 63 62 64 63 64 66 63 57 59 63 64 66 67 66 66 66 66 67 67 65 65
13 17 13 11 7 10 18 29 10 15 6 6 7 10 8 9 11 6 13 18 20 22 31 41 50 58 63 65 64 65 70 75 73 71 69 65 64 70 70 63 64 70 68 67 69 69 67 64 65 66 67 68 67 66
Wind_Direction_500mb
13 140 161 167 166 164 165 176 182 187 196 195 183 187 191 197 200 206 227 228 223 240 258 237 243 238 237 213 206 160 144 130 157 173 202 140 145 201 114 166 168 167 169 187 122 184 250 174 153 164 200 180 181 209
30 131 158 138 145 154 169 180 186 189 201 199 195 197 199 202 211 223 234 245 255 238 254 256 241 242 240 221 204 176 186 168 162 161 197 144 163 153 149 165 183 164 193 168 192 199 212 174 171 182 179 164 164 174
25 61 79 96 121 143 157 165 180 196 195 223 200 198 205 212 216 229 256 253 232 229 259 251 252 238 248 246 226 180 199 184 178 171 148 181 166 139 163 210 171 221 173 170 120 216 179 193 179 184 183 184 178 172
35 34 49 102 118 142 160 165 181 206 225 201 184 196 212 226 238 250 273 240 212 206 226 245 235 239 246 245 216 200 200 191 180 182 169 160 131 203 173 160 173 180 170 156 207 51 104 190 203 195 196 190 173 179
31 39 41 63 68 103 125 139 168 179 157 160 174 204 227 240 245 254 268 241 204 199 256 201 210 213 231 215 195 198 195 184 170 154 149 194 133 128 281 96 187 188 184 188 208 164 184 192 193 203 204 206 196 195
22 37 36 43 41 51 95 115 139 162 175 190 202 226 276 288 246 243 252 239 216 212 275 237 185 195 202 205 195 197 204 185 163 98 85 282 208 147 154 190 217 183 189 195 177 192 187 190 197 204 204 205 206 205
18 25 32 31 36 41 60 73 161 226 218 244 249 263 267 2 234 199 208 319 216 209 230 245 238 172 179 171 166 177 170 181 167 138 164 186 236 132 118 160 183 180 177 184 186 172 157 176 189 204 205 195 192 187
17 18 22 24 26 29 39 24 343 289 255 269 294 308 315 315 265 253 262 299 208 196 216 236 201 167 160 128 112 142 130 152 153 149 143 140 149 165 51 290 139 170 166 164 170 178 190 180 182 191 190 182 179 181
27 20 19 19 17 19 26 14 342 307 291 290 277 303 313 357 341 300 303 231 187 230 236 244 183 150 152 99 117 117 138 114 128 128 177 166 60 187 103 180 153 166 168 172 169 171 174 186 179 179 183 178 180 174
25 20 15 15 11 8 9 10 355 319 327 292 283 275 293 308 322 323 352 245 186 18 4 275 307 126 136 122 96 105 102 140 150 125 135 99 193 73 66 191 157 182 191 171 149 140 159 163 172 172 177 181 182 175
19 17 19 13 9 4 3 359 9 3 37 59 326 234 273 318 334 6 16 20 327 69 350 314 1 89 36 122 120 49 124 163 132 162 161 148 230 100 266 221 169 162 170 173 188 184 183 183 174 171 171 173 173 170
9 10 9 6 8 10 4 354 355 20 11 343 314 330 10 39 15 351 26 14 30 8 336 329 325 359 33 78 91 56 99 207 145 157 126 167 93 27 15 203 167 177 185 182 170 173 171 172 169 168 167 167 170 168
7 14 10 10 7 7 4 353 345 349 347 15 40 59 18 356 38 27 353 354 346 346 3 331 328 20 60 74 69 85 84 101 165 131 136 74 46 19 20 50 140 174 173 169 160 161 163 165 165 168 162 161 161 157
11 17 8 6 4 5 4 1 352 348 13 50 34 35 43 28 50 5 322 309 306 306 317 312 271 46 42 63 73 88 44 181 88 136 183 43 7 14 31 75 141 153 159 154 155 158 159 159 155 155 154 154 154 152
1 8 15 26 10 356 1 8 21 43 49 57 34 49 53 320 218 304 308 291 311 305 314 306 257 38 33 75 48 119 105 103 35 79 52 2 0 22 52 90 127 141 150 150 152 154 151 150 150 146 147 148 150 149
19 14 4 358 359 351 3 13 75 79 61 53 40 41 356 293 356 348 339 317 337 329 321 254 313 62 45 20 54 29 329 56 40 354 347 352 10 31 52 89 118 134 142 143 145 145 146 147 147 145 145 146 146 146
19 17 7 14 28 8 27 72 51 55 60 50 60 40 355 315 328 338 339 332 342 330 9 332 40 13 282 62 52 16 34 357 344 355 349 7 14 29 55 90 119 130 135 134 135 137 136 137 137 140 143 144 143 144
12 7 7 24 37 50 64 50 74 67 61 37 41 355 40 41 354 5 350 354 7 4 357 35 346 35 31 33 49 23 12 2 13 10 13 29 42 60 82 104 118 125 128 130 135 136 136 139 141 140 141 141 146 146
5 7 13 35 41 54 52 44 46 88 54 42 21 8 7 10 19 18 17 19 39 31 63 39 50 34 30 31 360 1 0 2 340 6 33 51 65 86 101 109 115 119 124 125 129 131 134 137 137 138 142 145 148 147
15 21 37 45 56 48 61 39 53 80 63 22 16 20 34 14 7 16 26 23 40 50 40 40 32 7 335 342 335 328 337 352 14 31 42 53 69 85 96 105 111 115 121 126 127 128 133 136 139 143 146 149 151 152
23 43 41 53 52 56 61 30 49 54 67 77 20 32 19 16 20 15 16 19 53 38 41 20 347 342 350 0 4 9 15 20 26 46 33 46 63 74 86 96 106 120 128 127 129 129 134 140 142 147 151 155 157 160
42 49 48 38 51 59 53 22 39 18 33 23 27 35 42 23 3 14 14 40 56 18 0 347 351 1 22 26 29 32 33 41 53 62 69 73 73 78 88 98 109 116 124 129 134 137 141 144 148 153 160 165 170 181
47 44 44 31 59 40 18 14 42 18 40 353 15 34 21 16 6 12 64 48 32 1 7 11 13 24 34 41 42 39 37 40 50 55 60 69 77 82 92 102 114 122 128 131 137 143 148 153 159 170 182 196 208 224
46 42 31 36 25 3 355 22 24 14 33 26 17 26 1 334 358 58 67 40 359 9 17 25 29 34 36 39 38 37 39 43 49 52 58 65 75 75 83 90 96 106 119 134 147 145 153 169 186 214 239 257 264 270
54 13 28 6 14 18 22 3 355 23 21 340 22 12 347 347 58 58 55 359 2 13 21 30 38 40 40 39 36 36 34 34 37 44 48 51 50 54 58 55 53 53 60 52 289 284 269 262 261 265 271 277 280 284
63 19 36 356 1 42 339 11 15 348 339 353 1 329 337 27 54 32 308 341 355 6 17 25 31 35 34 33 31 30 29 31 32 30 28 24 21 15 9 9 8 358 346 324 300 283 276 271 271 272 276 282 288 290
46 346 7 16 359 345 19 19 360 43 24 7 331 339 11 55 23 291 344 0 9 19 25 28 30 31 31 33 29 27 26 24 22 18 16 17 17 14 9 4 360 1 356 334 322 314 303 292 284 284 288 293 296 296
65 17 6 339 11 21 78 29 37 22 322 347 308 14 87 182 235 329 336 359 13 19 24 27 29 29 28 28 27 25 21 18 15 17 17 16 13 13 9 7 358 350 344 332 323 314 306 300 299 297 296 295 293 293
18 354 355 354 8 44 43 50 348 357 345 326 130 285 286 275 303 315 332 339 354 9 30 44 47 45 39 32 25 18 14 12 8 9 9 7 4 359 353 346 337 328 320 314 310 307 303 301 299 295 293 293 293 289
359 357 9 13 42 10 5 351 332 320 317 283 286 296 299 299 321 321 327 331 354 77 88 76 61 49 40 25 16 10 4 358 357 350 343 341 338 338 336 333 329 323 316 312 308 304 300 298 297 295 295 294 292 292
350 355 345 353 321 343 338 340 343 342 335 314 301 283 305 317 349 25 33 182 184 184 157 112 24 352 344 345 339 337 335 334 323 318 312 311 311 311 314 310 306 301 299 300 300 298 296 292 290 290 288 288 289 289
349 1 354 345 327 337 344 348 341 338 329 326 319 324 328 314 300 310 271 255 256 259 287 289 307 321 311 303 306 314 317 317 314 307 300 298 298 302 300 296 297 298 294 289 290 294 295 290 286 285 286 286 288 290
346 352 348 324 310 347 343 346 359 348 303 309 317 318 313 291 271 313 354 353 348 335 327 317 308 305 302 298 298 302 306 309 306 302 301 301 299 300 297 292 291 294 294 288 287 289 290 288 287 286 286 286 287 289
Wind_Speed_850mb
52 24 29 53 48 49 47 40 38 38 38 51 45 45 44 46 43 44 47 46 50 23 39 46 69 58 57 62 31 18 21 5 10 13 9 6 6 10 9 12 37 24 28 20 6 5 28 23 34 38 12 7 28 37
59 29 25 46 53 45 36 31 33 39 34 43 54 45 47 45 43 43 39 45 45 51 23 31 88 82 70 81 79 49 22 16 21 9 9 6 7 8 13 17 18 10 26 25 29 13 8 63 40 57 40 30 25 30
77 54 54 43 34 32 28 26 29 36 38 37 47 46 43 42 41 42 38 46 52 45 41 56 74 79 87 90 78 33 40 54 34 28 9 7 9 7 12 9 28 10 15 14 14 15 15 58 19 64 44 42 39 34
69 67 41 43 31 28 29 25 20 26 37 27 31 31 29 32 37 45 35 43 68 17 10 19 55 90 69 68 91 94 79 66 50 48 7 7 7 7 8 11 14 10 24 15 9 7 16 37 54 70 58 42 38 31
55 66 65 39 50 34 27 20 17 18 22 20 17 17 25 38 45 55 38 41 76 46 5 8 27 58 77 82 89 96 60 68 34 13 4 5 4 10 3 7 5 14 35 24 19 36 38 40 75 66 70 59 39 35
60 52 57 46 49 42 29 23 16 12 11 14 16 17 19 26 33 38 11 30 68 74 14 6 12 38 71 79 75 74 59 66 16 12 3 5 10 5 9 7 5 46 48 55 10 65 52 47 77 73 64 54 54 40
51 46 45 47 41 35 19 9 1 5 9 8 11 14 14 18 16 16 4 12 34 61 13 5 4 11 52 58 41 43 45 37 18 14 5 9 7 3 3 7 13 52 43 52 35 64 33 47 62 73 72 56 46 45
40 44 40 40 39 31 22 15 10 8 7 10 11 17 23 20 7 16 17 16 25 27 14 4 4 8 28 14 9 22 17 22 13 11 9 5 2 2 1 4 23 46 51 53 61 55 72 50 48 69 63 63 58 54
38 38 37 36 38 31 23 19 15 11 7 9 10 16 22 12 13 11 24 5 21 14 3 6 10 8 15 12 15 12 13 5 8 5 4 4 2 3 1 1 31 56 43 54 50 35 43 61 58 64 66 64 66 63
39 37 37 38 39 33 26 23 22 15 13 3 6 7 4 9 34 31 5 2 2 2 6 3 10 5 6 7 4 7 4 7 6 3 15 3 5 9 4 8 16 29 27 65 60 37 48 59 65 68 73 74 70 69
35 40 41 37 36 36 27 22 25 14 7 4 2 6 9 12 7 5 3 4 6 3 14 9 11 3 9 5 7 6 5 6 7 6 7 7 4 6 2 11 15 21 41 50 46 56 59 67 75 77 73 67 64 64
34 36 43 42 43 33 26 23 20 20 12 7 7 4 10 12 11 6 5 6 9 6 15 9 10 11 10 10 7 6 6 2 8 10 7 8 4 14 3 2 9 19 30 37 29 41 48 65 75 75 71 66 65 66
27 33 41 43 43 35 28 22 17 18 18 7 7 8 15 13 18 12 16 6 9 14 19 17 7 7 9 12 7 6 6 3 2 4 6 5 8 14 9 5 6 18 25 32 33 38 48 62 60 59 68 68 73 75
20 30 38 40 41 35 32 25 14 10 7 13 12 14 9 8 7 6 6 7 12 21 38 32 8 5 7 7 5 9 1 4 5 7 5 5 21 21 14 7 10 16 28 36 41 46 52 58 65 69 72 77 79 79
28 29 40 38 37 33 29 26 14 5 13 14 14 10 8 2 1 9 16 19 16 35 32 17 12 4 7 8 5 7 4 6 7 5 5 21 24 18 17 16 18 24 32 44 49 55 62 71 78 83 79 77 73 69
40 29 47 42 35 28 22 13 15 20 14 14 22 6 19 3 8 14 18 16 35 50 24 12 4 6 10 5 7 9 5 7 5 5 18 23 23 21 20 17 21 29 41 54 64 71 76 78 80 80 76 71 71 68
52 63 54 34 23 30 10 13 16 20 15 12 8 16 8 4 6 17 24 34 55 28 8 6 11 7 5 6 8 11 8 6 13 19 17 18 19 18 17 16 23 34 44 54 64 68 72 72 74 73 70 64 61 59
62 64 54 33 21 31 49 25 17 17 15 20 6 14 10 14 19 19 35 46 32 24 18 8 11 16 10 8 7 7 14 16 15 15 16 16 15 14 14 17 24 33 41 50 57 60 62 63 65 64 65 64 61 58
51 53 46 30 38 24 15 20 19 12 13 7 10 23 12 12 28 41 47 37 17 21 9 12 13 9 7 8 7 15 16 13 10 17 16 16 14 13 17 22 28 35 40 46 50 55 57 56 57 58 57 55 52 49
41 39 44 38 28 17 16 19 15 16 6 10 15 15 11 15 34 40 63 47 41 19 19 12 8 9 10 12 15 16 16 15 14 11 13 16 15 15 18 23 29 34 36 40 46 49 50 51 50 46 44 42 38 36
37 34 42 44 48 38 22 17 19 14 8 9 14 12 11 18 32 45 45 41 34 18 7 14 18 19 17 16 16 14 14 13 13 10 9 13 17 18 20 22 25 28 33 35 37 40 38 38 37 35 33 31 27 23
36 39 37 35 26 18 24 35 12 12 11 10 14 15 17 9 20 28 23 42 17 14 16 23 26 23 21 23 21 20 17 15 15 15 15 15 16 17 18 19 19 21 24 27 28 29 28 26 25 23 21 19 18 16
30 30 26 33 18 24 12 26 13 22 10 15 13 11 9 12 26 18 15 16 14 27 31 30 23 21 23 24 25 25 22 19 19 17 17 16 16 16 16 16 16 16 17 18 19 19 18 16 15 13 12 10 10 10
38 23 25 21 34 13 19 22 16 16 14 11 9 9 10 15 27 14 7 7 21 31 32 29 26 22 24 28 28 26 24 22 20 18 16 14 13 13 12 12 11 10 9 9 8 7 7 6 6 6 7 8 10 11
17 34 22 18 25 19 17 14 15 13 8 9 10 9 9 18 6 8 4 12 23 28 30 30 29 28 26 25 27 27 27 26 23 20 18 16 15 13 12 10 7 5 3 1 1 2 3 5 7 8 10 11 12 13
18 31 18 16 13 12 7 11 12 8 6 11 6 16 11 5 10 6 4 21 20 25 27 28 28 26 27 27 26 26 26 26 24 20 19 17 14 13 11 10 8 8 6 5 5 6 8 9 11 12 12 14 15 17
15 11 18 21 12 9 7 6 5 5 10 11 8 11 7 10 6 6 12 17 20 25 26 25 25 25 25 25 25 25 25 25 25 24 21 17 16 14 13 11 10 8 8 7 7 8 10 11 12 14 15 17 20 24
11 25 6 26 13 15 4 6 8 7 6 14 11 11 5 6 6 7 6 12 15 17 19 21 22 24 26 28 28 27 26 25 24 22 20 20 20 18 16 14 13 13 12 13 14 14 15 17 20 23 24 24 23 29
12 32 20 13 11 13 14 7 5 8 16 10 1 5 7 7 10 10 11 13 14 13 14 17 20 23 26 27 29 29 28 25 25 26 27 26 25 24 22 21 20 21 22 23 25 28 29 32 33 36 36 37 34 36
20 36 14 14 7 7 9 18 19 24 18 11 12 13 14 11 10 11 9 6 3 3 7 12 16 20 22 27 29 31 30 28 29 30 30 30 32 34 33 33 33 34 36 38 38 39 40 43 45 47 49 49 48 49
22 21 9 6 3 7 23 27 20 16 12 8 12 12 15 17 9 6 2 5 7 5 4 4 6 16 26 29 32 39 45 44 45 40 38 39 40 41 41 43 45 46 47 48 50 53 55 57 57 57 57 58 57 58
20 20 12 7 5 17 19 27 16 10 9 8 7 12 14 12 10 5 6 11 16 16 15 20 30 40 34 37 38 44 50 56 62 63 62 64 63 64 66 63 57 59 63 64 66 67 66 66 66 66 67 67 65 65
13 17 13 11 7 10 18 29 10 15 6 6 7 10 8 9 11 6 13 18 20 22 31 41 50 58 63 65 64 65 70 75 73 71 69 65 64 70 70 63 64 70 68 67 69 69 67 64 65 66 67 68 67 66
Wind_Direction_850mb
13 140 161 167 166 164 165 176 182 187 196 195 183 187 191 197 200 206 227 228 223 240 258 237 243 238 237 213 206 160 144 130 157 173 202 140 145 201 114 166 168 167 169 187 122 184 250 174 153 164 200 180 181 209
30 131 158 138 145 154 169 180 186 189 201 199 195 197 199 202 211 223 234 245 255 238 254 256 241 242 240 221 204 176 186 168 162 161 197 144 163 153 149 165 183 164 193 168 192 199 212 174 171 182 179 164 164 174
25 61 79 96 121 143 157 165 180 196 195 223 200 198 205 212 216 229 256 253 232 229 259 251 252 238 248 246 226 180 199 184 178 171 148 181 166 139 163 210 171 221 173 170 120 216 179 193 179 184 183 184 178 172
35 34 49 102 118 142 160 165 181 206 225 201 184 196 212 226 238 250 273 240 212 206 226 245 235 239 246 245 216 200 200 191 180 182 169 160 131 203 173 160 173 180 170 156 207 51 104 190 203 195 196 190 173 179
31 39 41 63 68 103 125 139 168 179 157 160 174 204 227 240 245 254 268 241 204 199 256 201 210 213 231 215 195 198 195 184 170 154 149 194 133 128 281 96 187 188 184 188 208 164 184 192 193 203 204 206 196 195
22 37 36 43 41 51 95 115 139 162 175 190 202 226 276 288 246 243 252 239 216 212 275 237 185 195 202 205 195 197 204 185 163 98 85 282 208 147 154 190 217 183 189 195 177 192 187 190 197 204 204 205 206 205
18 25 32 31 36 41 60 73 161 226 218 244 249 263 267 2 234 199 208 319 216 209 230 245 238 172 179 171 166 177 170 181 167 138 164 186 236 132 118 160 183 180 177 184 186 172 157 176 189 204 205 195 192 187
17 18 22 24 26 29 39 24 343 289 255 269 294 308 315 315 265 253 262 299 208 196 216 236 201 167 160 128 112 142 130 152 153 149 143 140 149 165 51 290 139 170 166 164 170 178 190 180 182 191 190 182 179 181
27 20 19 19 17 19 26 14 342 307 291 290 277 303 313 357 341 300 303 231 187 230 236 244 183 150 152 99 117 117 138 114 128 128 177 166 60 187 103 180 153 166 168 172 169 171 174 186 179 179 183 178 180 174
25 20 15 15 11 8 9 10 355 319 327 292 283 275 293 308 322 323 352 245 186 18 4 275 307 126 136 122 96 105 102 140 150 125 135 99 193 73 66 191 157 182 191 171 149 140 159 163 172 172 177 181 182 175
19 17 19 13 9 4 3 359 9 3 37 59 326 234 273 318 334 6 16 20 327 69 350 314 1 89 36 122 120 49 124 163 132 162 161 148 230 100 266 221 169 162 170 173 188 184 183 183 174 171 171 173 173 170
9 10 9 6 8 10 4 354 355 20 11 343 314 330 10 39 15 351 26 14 30 8 336 329 325 359 33 78 91 56 99 207 145 157 126 167 93 27 15 203 167 177 185 182 170 173 171 172 169 168 167 167 170 168
7 14 10 10 7 7 4 353 345 349 347 15 40 59 18 356 38 27 353 354 346 346 3 331 328 20 60 74 69 85 84 101 165 131 136 74 46 19 20 50 140 174 173 169 160 161 163 165 165 168 162 161 161 157
11 17 8 6 4 5 4 1 352 348 13 50 34 35 43 28 50 5 322 309 306 306 317 312 271 46 42 63 73 88 44 181 88 136 183 43 7 14 31 75 141 153 159 154 155 158 159 159 155 155 154 154 154 152
1 8 15 26 10 356 1 8 21 43 49 57 34 49 53 320 218 304 308 291 311 305 314 306 257 38 33 75 48 119 105 103 35 79 52 2 0 22 52 90 127 141 150 150 152 154 151 150 150 146 147 148 150 149
19 14 4 358 359 351 3 13 75 79 61 53 40 41 356 293 356 348 339 317 337 329 321 254 313 62 45 20 54 29 329 56 40 354 347 352 10 31 52 89 118 134 142 143 145 145 146 147 147 145 145 146 146 146
19 17 7 14 28 8 27 72 51 55 60 50 60 40 355 315 328 338 339 332 342 330 9 332 40 13 282 62 52 16 34 357 344 355 349 7 14 29 55 90 119 130 135 134 135 137 136 137 137 140 143 144 143 144
12 7 7 24 37 50 64 50 74 67 61 37 41 355 40 41 354 5 350 354 7 4 357 35 346 35 31 33 49 23 12 2 13 10 13 29 42 60 82 104 118 125 128 130 135 136 136 139 141 140 141 141 146 146
5 7 13 35 41 54 52 44 46 88 54 42 21 8 7 10 19 18 17 19 39 31 63 39 50 34 30 31 360 1 0 2 340 6 33 51 65 86 101 109 115 119 124 125 129 131 134 137 137 138 142 145 148 147
15 21 37 45 56 48 61 39 53 80 63 22 16 20 34 14 7 16 26 23 40 50 40 40 32 7 335 342 335 328 337 352 14 31 42 53 69 85 96 105 111 115 121 126 127 128 133 136 139 143 146 149 151 152
23 43 41 53 52 56 61 30 49 54 67 77 20 32 19 16 20 15 16 19 53 38 41 20 347 342 350 0 4 9 15 20 26 46 33 46 63 74 86 96 106 120 128 127 129 129 134 140 142 147 151 155 157 160
42 49 48 38 51 59 53 22 39 18 33 23 27 35 42 23 3 14 14 40 56 18 0 347 351 1 22 26 29 32 33 41 53 62 69 73 73 78 88 98 109 116 124 129 134 137 141 144 148 153 160 165 170 181
47 44 44 31 59 40 18 14 42 18 40 353 15 34 21 16 6 12 64 48 32 1 7 11 13 24 34 41 42 39 37 40 50 55 60 69 77 82 92 102 114 122 128 131 137 143 148 153 159 170 182 196 208 224
46 42 31 36 25 3 355 22 24 14 33 26 17 26 1 334 358 58 67 40 359 9 17 25 29 34 36 39 38 37 39 43 49 52 58 65 75 75 83 90 96 106 119 134 147 145 153 169 186 214 239 257 264 270
54 13 28 6 14 18 22 3 355 23 21 340 22 12 347 347 58 58 55 359 2 13 21 30 38 40 40 39 36 36 34 34 37 44 48 51 50 54 58 55 53 53 60 52 289 284 269 262 261 265 271 277 280 284
63 19 36 356 1 42 339 11 15 348 339 353 1 329 337 27 54 32 308 341 355 6 17 25 31 35 34 33 31 30 29 31 32 30 28 24 21 15 9 9 8 358 346 324 300 283 276 271 271 272 276 282 288 290
46 346 7 16 359 345 19 19 360 43 24 7 331 339 11 55 23 291 344 0 9 19 25 28 30 31 31 33 29 27 26 24 22 18 16 17 17 14 9 4 360 1 356 334 322 314 303 292 284 284 288 293 296 296
65 17 6 339 11 21 78 29 37 22 322 347 308 14 87 182 235 329 336 359 13 19 24 27 29 29 28 28 27 25 21 18 15 17 17 16 13 13 9 7 358 350 344 332 323 314 306 300 299 297 296 295 293 293
18 354 355 354 8 44 43 50 348 357 345 326 130 285 286 275 303 315 332 339 354 9 30 44 47 45 39 32 25 18 14 12 8 9 9 7 4 359 353 346 337 328 320 314 310 307 303 301 299 295 293 293 293 289
359 357 9 13 42 10 5 351 332 320 317 283 286 296 299 299 321 321 327 331 354 77 88 76 61 49 40 25 16 10 4 358 357 350 343 341 338 338 336 333 329 323 316 312 308 304 300 298 297 295 295 294 292 292
350 355 345 353 321 343 338 340 343 342 335 314 301 283 305 317 349 25 33 182 184 184 157 112 24 352 344 345 339 337 335 334 323 318 312 311 311 311 314 310 306 301 299 300 300 298 296 292 290 290 288 288 289 289
349 1 354 345 327 337 344 348 341 338 329 326 319 324 328 314 300 310 271 255 256 259 287 289 307 321 311 303 306 314 317 317 314 307 300 298 298 302 300 296 297 298 294 289 290 294 295 290 286 285 286 286 288 290
346 352 348 324 310 347 343 346 359 348 303 309 317 318 313 291 271 313 354 353 348 335 327 317 308 305 302 298 298 302 306 309 306 302 301 301 299 300 297 292 291 294 294 288 287 289 290 288 287 286 286 286 287 289